This is the latest recevied weather packets stored in our database for station/object SQ6RR-11. If no packets are shown the sender has not sent any weather packets the latest 10 day(s).
| Time | Temp. | Humidity | Pressure | Rain* | Wind** | Luminosity | Snow |
|---|---|---|---|---|---|---|---|
| 1777634603 | 20° C | 29% | 1029 hPa | 0 mm | - | - | - |
| 1777634343 | 18.89° C | 28% | 1029.1 hPa | 0 mm | - | - | - |
| 1777634073 | 18.89° C | 28% | 1029.1 hPa | 0 mm | - | - | - |
| 1777633807 | 18.89° C | 27% | 1029.2 hPa | 0 mm | - | - | - |
| 1777633534 | 19.44° C | 28% | 1029.2 hPa | 0 mm | - | - | - |
| 1777633247 | 18.89° C | 28% | 1029.3 hPa | 0 mm | - | - | - |
| 1777632983 | 19.44° C | 28% | 1029.4 hPa | 0 mm | - | - | - |
| 1777632703 | 18.89° C | 28% | 1029.2 hPa | 0 mm | - | - | - |
| 1777632413 | 19.44° C | 28% | 1029.3 hPa | 0 mm | - | - | - |
| 1777632143 | 19.44° C | 29% | 1029.3 hPa | 0 mm | - | - | - |
| 1777631866 | 18.89° C | 29% | 1029.4 hPa | 0 mm | - | - | - |
| 1777631602 | 18.33° C | 29% | 1029.3 hPa | 0 mm | - | - | - |
| 1777631336 | 18.33° C | 29% | 1029.3 hPa | 0 mm | - | - | - |
| 1777631051 | 17.78° C | 28% | 1029.5 hPa | 0 mm | - | - | - |
| 1777630783 | 18.33° C | 29% | 1029.4 hPa | 0 mm | - | - | - |
| 1777630516 | 17.78° C | 28% | 1029.4 hPa | 0 mm | - | - | - |
| 1777630251 | 17.78° C | 28% | 1029.5 hPa | 0 mm | - | - | - |
| 1777629980 | 18.33° C | 28% | 1029.4 hPa | 0 mm | - | - | - |
| 1777629712 | 17.78° C | 29% | 1029.4 hPa | 0 mm | - | - | - |
| 1777629443 | 18.33° C | 28% | 1029.3 hPa | 0 mm | - | - | - |
| 1777629178 | 17.78° C | 28% | 1029.3 hPa | 0 mm | - | - | - |
| 1777628907 | 18.33° C | 29% | 1029.4 hPa | 0 mm | - | - | - |
| 1777628630 | 17.78° C | 29% | 1029.4 hPa | 0 mm | - | - | - |
| 1777628368 | 17.22° C | 29% | 1029.5 hPa | 0 mm | - | - | - |
| 1777628098 | 17.22° C | 28% | 1029.7 hPa | 0 mm | - | - | - |
* Rain latest hour (hover to see other rain measurements)
** Current wind speed in m/s (hover to see current wind gust speed)